This is the latest recevied weather packets stored in our database for station/object K7SKM. If no packets are shown the sender has not sent any weather packets the latest 10 day(s).
| Time | Temp. | Humidity | Pressure | Rain* | Wind** | Luminosity | Snow |
|---|---|---|---|---|---|---|---|
| 1778019183 | 17.78° C | 63% | 1020.9 hPa | 0 mm | - | 186 W/m² | - |
| 1778018880 | 17.78° C | 63% | 1020.8 hPa | 0 mm | - | 158 W/m² | - |
| 1778018577 | 17.22° C | 64% | 1021.1 hPa | 0 mm | - | 180 W/m² | - |
| 1778018276 | 18.33° C | 62% | 1021 hPa | 0 mm | - | 187 W/m² | - |
| 1778017973 | 17.78° C | 64% | 1021 hPa | 0 mm | - | 167 W/m² | - |
| 1778017671 | 17.78° C | 64% | 1020.9 hPa | 0 mm | - | 141 W/m² | - |
| 1778017368 | 17.78° C | 63% | 1021 hPa | 0 mm | - | 142 W/m² | - |
| 1778017065 | 17.22° C | 64% | 1020.9 hPa | 0 mm | - | 141 W/m² | - |
| 1778016763 | 17.78° C | 64% | 1021.1 hPa | 0 mm | - | 146 W/m² | - |
| 1778016458 | 17.22° C | 64% | 1021 hPa | 0 mm | - | 146 W/m² | - |
| 1778016156 | 17.22° C | 63% | 1020.9 hPa | 0 mm | - | 142 W/m² | - |
| 1778015852 | 17.78° C | 62% | 1021.1 hPa | 0 mm | - | 134 W/m² | - |
| 1778015550 | 17.22° C | 62% | 1021 hPa | 0 mm | - | 135 W/m² | - |
| 1778015246 | 16.67° C | 64% | 1020.9 hPa | 0 mm | - | 141 W/m² | - |
| 1778014943 | 17.22° C | 62% | 1021.1 hPa | 0 mm | - | 141 W/m² | - |
| 1778014641 | 17.22° C | 63% | 1021.3 hPa | 0 mm | - | 142 W/m² | - |
| 1778014339 | 16.67° C | 65% | 1021.2 hPa | 0 mm | - | 143 W/m² | - |
| 1778014035 | 16.67° C | 66% | 1021.2 hPa | 0 mm | - | 132 W/m² | - |
| 1778013733 | 16.67° C | 64% | 1021.3 hPa | 0 mm | - | 125 W/m² | - |
| 1778013430 | 16.67° C | 64% | 1021.3 hPa | 0 mm | - | 125 W/m² | - |
| 1778013127 | 16.67° C | 65% | 1021.4 hPa | 0 mm | - | 120 W/m² | - |
| 1778012822 | 16.67° C | 65% | 1021.3 hPa | 0 mm | - | 121 W/m² | - |
| 1778012519 | 16.67° C | 65% | 1021.3 hPa | 0 mm | - | 122 W/m² | - |
| 1778012215 | 16.67° C | 67% | 1021.1 hPa | 0 mm | - | 119 W/m² | - |
| 1778011913 | 16.67° C | 66% | 1021.2 hPa | 0 mm | - | 116 W/m² | - |
* Rain latest hour (hover to see other rain measurements)
** Current wind speed in m/s (hover to see current wind gust speed)